Location: Écuvilly
(49.6505°N, 2.9206°E)
Time: 02:12:45
(UTC+00:00)

ATLAS CENTAUR R/B - Pass Details

Date: 17 November 2025
Orbit: 341 x 419 km, 64.6° (Epoch: 13 December)

Event Time Altitude Azimuth Distance (km) Brightness Sun altitude
Rises 16:24:42 0° 241° (WSW) 2,448 7.6 -4.0°
Reaches altitude 10° 16:26:54 10° 250° (WSW) 1,586 5.6 -4.3°
Maximum altitude 16:30:12 36° 318° (NW) 741 2.2 -4.8°
Drops below altitude 10° 16:33:32 10° 27° (NNE) 1,596 3.2 -5.3°
Enters shadow 16:34:59 - 34° (NE) 2,159 3.8 -5.5°
